Air Resources Laboratory banner image
Air Resources Laboratory web site National Oceanic and Atmospheric Administration (NOAA)

in roundup


Office: IND

ASUS43 KIND 151009
RWRIN

WEATHER ROUNDUP FOR INDIANA
NATIONAL WEATHER SERVICE INDIANAPOLIS IN
500 AM EST FRI DEC 15 2017

NOTE: "FAIR" INDICATES FEW OR NO CLOUDS BELOW 12,000 FEET WITH NO
SIGNIFICANT WEATHER AND/OR OBSTRUCTIONS TO VISIBILITY.

* - STATION DOES NOT REPORT WEATHER SUCH AS PRECIPITATION OR FOG.

+ - STATION NOT QUALITY CONTROLLED BY THE NATIONAL WEATHER SERVICE.
    USE DATA WITH CAUTION...ESPECIALLY DEWPOINT AND RELATIVE
    HUMIDITY OBSERVATIONS.

INZ001>003-010>013-019-020-151100-
NORTHWEST INDIANA

CITY           SKY/WX    TMP DP  RH WIND       PRES   REMARKS
GARY /AIRPORT/ CLOUDY    25  13  61 SW6       29.97F WCI  18
KNOX *+        CLOUDY    21  14  73 SW5       29.97F WCI  15
LA PORTE +     CLOUDY    17  14  87 SW6       29.96F WCI   9
MICHIGAN CITY+ CLOUDY    21  14  73 SW9       29.96F WCI  11
MONTICELLO +   CLOUDY    20  13  74 SW3       29.99F
RENSSELAER +   CLOUDY    21  14  73 SW6       29.99F WCI  14
VALPARAISO     CLOUDY    21  14  74 SW9       29.96F WCI  11

$$

LMZ046-743>745-151100-
SOUTHERN LAKE MICHIGAN

STATION/POSITION TIME  TEMP    WIND        PRES    WAVE
                       AIR SEA DIR/SP/G            HT
                 (UTC) (F)     (DEG/KT/KT) (MB)    (FT)
BURNS HARBOR     0940   22     200/ 12/ 14 1014.9F
MICHIGAN CITY    0940   21     180/ 11/ 12   N/A

$$

INZ004-005-014>016-021>024-151100-
NORTH CENTRAL INDIANA

CITY           SKY/WX    TMP DP  RH WIND       PRES   REMARKS
GOSHEN         CLOUDY    19  13  77 SW8       29.94F WCI   9
LOGANSPORT +   CLOUDY    21  18  86 SW5       30.00F WCI  15
PERU/GRISSOM   CLOUDY    22  17  80 SW7       29.98S WCI  14
ROCHESTER +    CLOUDY    21  18  86 SW5       29.98F WCI  15
SOUTH BEND     CLOUDY    17  12  80 SW8       29.95F WCI   7
WARSAW +       CLOUDY    19  14  79 CALM      29.96F

$$

INZ006>009-017-018-025>027-151100-
NORTHEAST INDIANA

CITY           SKY/WX    TMP DP  RH WIND       PRES   REMARKS
AUBURN +       CLOUDY    21  14  73 S3        29.96F
FORT WAYNE     CLOUDY    23  17  78 SW9       29.98F WCI  13
HUNTINGTON +   CLOUDY    24  16  73 SW6       29.98S WCI  16
KENDALLVILLE + CLOUDY    19  13  76 SW5       29.93F WCI  13

$$

INZ028-029-035-036-043>045-051>053-151100-
WEST CENTRAL INDIANA

CITY           SKY/WX    TMP DP  RH WIND       PRES   REMARKS
CRAWFORDSVL +  CLOUDY    22  17  80 MISG        N/A
GREENCASTLE +  CLOUDY    27  16  63 SW5       30.03F WCI  21
LAFAYETTE      CLOUDY    21  17  84 SW3       30.01F
TERRE HAUTE    CLOUDY    27  17  66 W6        30.06S WCI  20

$$

INZ030>032-037>040-046>048-054>057-064-065-151100-
CENTRAL INDIANA

CITY           SKY/WX    TMP DP  RH WIND       PRES   REMARKS
FRANKFORT +    CLOUDY    26  19  76 W7        30.01F WCI  18
GREENWOOD *+   CLOUDY    28  20  71 S6        30.03S WCI  21
INDIANAPOLIS   CLOUDY    25  14  63 SW10      30.02F WCI  15
-EAGLE CREEK   CLOUDY    26  14  60 SW6       30.01F WCI  19
KOKOMO +       CLOUDY    24  17  74 SW9       29.99F WCI  14
MT COMFORT *+  CLOUDY    23  19  86 S6        30.01F WCI  16
SHELBYVILLE    CLOUDY    23  16  74 S8        30.03S WCI  14
ZIONSVILLE +   CLOUDY    24  16  71 SW8       30.01S WCI  15

$$

INZ033-034-041-042-049-050-058-059-151100-
EAST CENTRAL INDIANA

CITY           SKY/WX    TMP DP  RH WIND       PRES   REMARKS
MUNCIE         CLOUDY    25  14  63 SW8       29.99F WCI  16
RICHMOND +     CLOUDY    19  18  93 SW5       30.00F WCI  13

$$

INZ060-061-067>069-081>083-085>088-151100-
SOUTHWEST INDIANA

CITY           SKY/WX    TMP DP  RH WIND       PRES   REMARKS
EVANSVILLE     CLOUDY    30  22  72 W5        30.10S WCI  25
HUNTINGBURG +  CLOUDY    29  24  82 W5        30.08S WCI  24
WASHINGTON +   CLOUDY    29  21  71 W6        30.07S WCI  23

$$

INZ062-063-066-070>080-084-089>092-151100-
SOUTH CENTRAL AND SOUTHEAST INDIANA

CITY           SKY/WX    TMP DP  RH WIND       PRES   REMARKS
BEDFORD +      CLOUDY    25  19  80 CALM      30.05
BLOOMINGTON    CLOUDY    26  16  65 SW6       30.03F WCI  19
MADISON *+     PTCLDY    21  18  86 CALM      30.07R
NORTH VERNON + MOCLDY    19  16  86 CALM      30.05S
SEYMOUR +      CLOUDY    23  19  86 CALM      30.06S

$$